TimeEDT,TemperatureF,Dew PointF,Humidity,Sea Level PressureIn,VisibilityMPH,Wind Direction,Wind SpeedMPH,Gust SpeedMPH,PrecipitationIn,Events,Conditions,WindDirDegrees,DateUTC
12:53 AM,50.0,44.1,80,29.97,10.0,SW,3.5,-,N/A,,Clear,230,2013-09-25 04:53:00
1:53 AM,50.0,44.1,80,29.97,10.0,Calm,Calm,-,N/A,,Clear,0,2013-09-25 05:53:00
2:53 AM,48.0,43.0,83,29.96,10.0,Calm,Calm,-,N/A,,Clear,0,2013-09-25 06:53:00
3:53 AM,46.9,43.0,86,29.95,10.0,Calm,Calm,-,N/A,,Clear,0,2013-09-25 07:53:00
4:53 AM,46.9,43.0,86,29.96,10.0,Calm,Calm,-,N/A,,Clear,0,2013-09-25 08:53:00
5:53 AM,46.0,43.0,89,29.96,10.0,Calm,Calm,-,N/A,,Clear,0,2013-09-25 09:53:00
6:53 AM,46.0,42.1,86,29.97,10.0,Calm,Calm,-,N/A,,Clear,0,2013-09-25 10:53:00
7:53 AM,46.9,43.0,86,29.98,10.0,Calm,Calm,-,N/A,,Clear,0,2013-09-25 11:53:00
8:53 AM,55.9,44.1,64,29.98,10.0,Calm,Calm,-,N/A,,Clear,0,2013-09-25 12:53:00
9:53 AM,60.1,39.9,47,29.98,10.0,Calm,Calm,-,N/A,,Clear,0,2013-09-25 13:53:00
10:53 AM,64.9,39.9,40,30.00,10.0,Calm,Calm,-,N/A,,Clear,0,2013-09-25 14:53:00
11:53 AM,68.0,42.1,39,29.97,10.0,Calm,Calm,-,N/A,,Clear,0,2013-09-25 15:53:00
12:53 PM,71.1,42.1,35,29.95,10.0,Calm,Calm,-,N/A,,Clear,0,2013-09-25 16:53:00
1:53 PM,73.9,42.1,32,29.92,10.0,Variable,5.8,-,N/A,,Clear,0,2013-09-25 17:53:00
2:53 PM,75.9,42.1,30,29.90,10.0,Variable,3.5,-,N/A,,Clear,0,2013-09-25 18:53:00
3:53 PM,75.9,42.1,30,29.89,10.0,Variable,3.5,-,N/A,,Clear,0,2013-09-25 19:53:00
4:53 PM,75.9,39.9,27,29.89,10.0,Calm,Calm,-,N/A,,Clear,0,2013-09-25 20:53:00
5:53 PM,73.9,48.9,41,29.89,10.0,North,3.5,-,N/A,,Clear,360,2013-09-25 21:53:00
6:53 PM,66.0,46.9,50,29.90,10.0,Calm,Calm,-,N/A,,Clear,0,2013-09-25 22:53:00
7:53 PM,60.1,46.9,62,29.92,10.0,Calm,Calm,-,N/A,,Clear,0,2013-09-25 23:53:00
8:53 PM,55.9,46.0,69,29.93,10.0,Calm,Calm,-,N/A,,Clear,0,2013-09-26 00:53:00
9:53 PM,55.0,45.0,69,29.94,10.0,Calm,Calm,-,N/A,,Clear,0,2013-09-26 01:53:00
10:53 PM,52.0,44.1,74,29.94,10.0,SW,3.5,-,N/A,,Clear,230,2013-09-26 02:53:00
11:53 PM,52.0,44.1,74,29.94,10.0,Calm,Calm,-,N/A,,Clear,0,2013-09-26 03:53:00